[[{"header":{"parameterUnit":"m.s-1","parameterCategory":1,"la1":30.2991,"la2":30.254,"lo1":-89.0895,"lo2":-89.0444,"dy":0.0017,"dx":0.0017,"nx":28,"ny":28,"refTime":"2023-11-11T09:00:00:Z","depth":0,"parameterNumber":2,"parameterNumberName":"U-component_of_WINDS"},"data":[0,0,0,0,0,0,0,0,0,0,0,0,0,0,0,0,0,0,0,0,0,0,0,0,0,0,0,0,0,0,0,0,0,0,0,0,0,0,0,0,0,0,0,0,0,0,0,0,0,0,0,0,0,0,0,0,0,0,-4.0509,-4.0509,0,-4.0505,-4.0505,-4.0505,-4.0405,-4.0403,-4.04,-4.0398,-4.0395,-4.0398,-4.04,0,0,0,0,0,0,0,0,0,0,0,0,0,-4.0431,-4.0433,-4.0509,-4.0509,-4.0509,-4.0505,-4.0505,-4.0505,-4.0406,-4.0403,-4.04,-4.0397,-4.0395,-4.0397,-4.04,0,0,0,0,0,0,0,0,0,0,0,0,0,-4.045,-4.0433,-4.0509,-4.0459,-4.0454,-4.0505,-4.0505,-4.0505,-4.0406,-4.0403,-4.0399,-4.0395,-4.0394,-4.0397,-4.0401,-4.05,0,0,-4.0411,-4.0413,0,0,0,0,0,0,0,0,-4.0449,-4.0453,-4.0466,-4.0462,-4.0457,-4.0452,-4.0477,-4.0503,-4.0407,-4.0425,-4.0398,-4.0393,-4.0417,-4.0419,-4.0427,-4.05,-4.0499,-4.0412,-4.0414,-4.0415,-4.0416,0,0,0,0,0,0,0,-4.0448,-4.0452,-4.0507,-4.0467,-4.0461,-4.0437,-4.0435,-4.0481,-4.0443,-4.0423,-4.0416,-4.0416,-4.0414,-4.0423,-4.0426,-4.0499,-4.0412,-4.0415,-4.0417,-4.0418,-4.0653,-4.0657,0,0,0,0,0,0,-4.0453,-4.0452,-4.0508,-4.0507,-4.0443,-4.0441,-4.0439,-4.0458,-4.0442,-4.0436,-4.042,-4.0412,-4.0419,-4.0422,-4.0425,-4.054,-4.0415,-4.0419,-4.0421,-4.0649,-4.0654,-4.0658,0,0,0,0,0,0,-4.0452,-4.0459,-4.0508,-4.0478,-4.0482,-4.0447,-4.0468,-4.0459,-4.0468,-4.044,-4.0432,-4.0436,-4.0416,-4.042,-4.0482,-4.0538,-4.042,-4.0423,-4.0644,-4.065,-4.0656,-4.0771,0,0,0,0,0,0,-4.045,-4.0459,-4.0496,-4.0479,-4.0484,-4.0565,-4.0471,-4.0462,-4.0475,-4.0464,-4.0453,-4.0448,-4.0414,-4.0477,-4.0485,-4.0541,-4.0426,-4.0639,-4.0647,-4.0654,-4.0762,-4.078,-4.0796,0,0,0,0,0,-4.0447,-4.0529,-4.0499,-4.0506,-4.053,-4.0568,-4.0571,-4.0529,-4.048,-4.0517,-4.0498,-4.0448,-4.0531,-4.0484,-4.0492,-4.055,-4.0635,-4.0644,-4.0653,-4.0754,-4.0776,-4.0795,0,0,0,0,0,0,-4.0555,-4.0526,-4.0492,-4.0571,-4.0572,-4.0551,-4.0597,-4.0555,-4.0571,-4.0561,-4.0509,-4.0507,-4.0577,-4.0569,-4.0518,-4.0645,-4.0574,-4.0585,-4.0648,-4.0669,-4.0685,-4.0686,-4.0429,0,0,0,0,0,-4.0588,-4.0621,-4.0594,-4.0666,-4.0668,-4.0633,-4.0648,-4.0616,-4.0616,-4.0616,-4.0602,-4.0604,-4.063,-4.0649,-4.0672,-4.076,-4.0756,-4.0804,-4.0821,-4.0835,-4.0845,-4.0891,-4.0912,-4.0689,-4.0689,-4.0688,0,0,-4.0656,-4.0644,-4.0668,-4.0687,-4.0685,-4.072,-4.0634,-4.0675,-4.0701,-4.0622,-4.0679,-4.0669,-4.0668,-4.0743,-4.0776,-4.0739,-4.0906,-4.0847,-4.0858,-4.0861,-4.0903,-4.0924,-4.0943,-4.0695,-4.0694,-4.0693,0,0,-4.0798,-4.0793,-4.0852,-4.0851,-4.0848,-4.0823,-4.0838,-4.0823,-4.0812,-4.0868,-4.081,-4.084,-4.0887,-4.0888,-4.0895,-4.1037,-4.0992,-4.1046,-4.1135,-4.118,-4.1198,-4.1213,-4.1264,-4.1283,-4.1057,-4.1057,-4.1057,0,-4.0884,-4.0934,-4.0888,-4.0933,-4.0943,-4.0872,-4.0931,-4.0933,-4.0938,-4.0947,-4.0906,-4.0962,-4.0956,-4.1031,-4.1065,-4.1073,-4.1088,-4.1047,-4.1199,-4.1214,-4.1228,-4.1276,-4.1295,-4.1063,-4.1063,-4.1062,-4.1061,0,-4.1039,-4.1076,-4.1124,-4.1129,-4.1145,-4.1197,-4.1158,-4.1179,-4.1146,-4.1126,-4.1184,-4.1174,-4.1193,-4.1208,-4.1177,-4.1279,-4.1256,-4.1208,-4.1136,-4.1257,-4.1301,-4.1319,-4.1073,-4.1071,-4.1069,-4.1067,0,0,-4.1251,-4.1229,-4.1247,-4.1249,-4.124,-4.1267,-4.1316,-4.1334,-4.1353,-4.1359,-4.1398,-4.1439,-4.1394,-4.1402,-4.137,-4.1409,-4.1522,-4.1356,-4.1355,-4.1388,-4.1634,-4.1671,-4.1693,-4.1492,-4.1495,-4.1498,-4.1634,0,-4.1388,-4.147,-4.1429,-4.1516,-4.1548,-4.1481,-4.1523,-4.1523,-4.1505,-4.1531,-4.1511,-4.1541,-4.1479,-4.1484,-4.152,-4.1501,-4.1571,-4.1491,-4.1529,-4.1531,-4.1532,-4.1715,-4.1754,-4.1884,-4.1651,-4.1654,-4.1656,0,-4.156,-4.1572,-4.1662,-4.1646,-4.1659,-4.1697,-4.171,-4.1735,-4.1733,-4.1717,-4.1726,-4.1684,-4.1731,-4.1658,-4.1722,-4.1668,-4.1681,-4.1675,-4.1678,-4.1681,-4.1601,-4.1723,-4.1924,-4.1943,-4.1683,-4.1681,-4.1679,0,-4.1705,-4.1744,-4.1802,-4.1806,-4.1789,-4.1818,-4.1812,-4.1806,-4.1819,-4.1831,-4.1839,-4.1856,-4.1866,-4.188,-4.1844,-4.1794,-4.1913,-4.1837,-4.1901,-4.1902,-4.193,-4.1929,-4.2136,-4.1938,-4.1938,-4.1937,-4.1937,0,-4.1864,-4.1921,-4.1867,-4.1904,-4.1966,-4.1918,-4.1982,-4.1969,-4.1964,-4.1996,-4.1939,-4.1971,-4.1921,-4.1948,-4.192,-4.1977,-4.1982,-4.1971,-4.1963,-4.1976,-4.1978,-4.1984,-4.1974,-4.1942,-4.1941,-4.194,-4.1939,0,-4.2037,-4.2003,-4.2062,-4.2041,-4.2037,-4.2084,-4.2066,-4.2098,-4.2076,-4.2118,-4.2125,-4.2091,-4.212,-4.2085,-4.2111,-4.2092,-4.217,-4.2148,-4.2171,-4.2164,-4.223,-4.2225,-4.2449,-4.2476,-4.2261,-4.2263,-4.2265,0,-4.214,-4.2183,-4.2166,-4.2183,-4.2181,-4.221,-4.2222,-4.2177,-4.2193,-4.2193,-4.2226,-4.2249,-4.2266,-4.2315,-4.2293,-4.2312,-4.2291,-4.2368,-4.2294,-4.2306,-4.2292,-4.229,-4.2294,-4.2384,-4.2386,-4.2388,-4.239,0,-4.2328,-4.2308,-4.2329,-4.2344,-4.2361,-4.237,-4.2376,-4.2393,-4.2345,-4.2366,-4.2394,-4.2407,-4.2433,-4.2458,-4.2471,-4.2465,-4.242,-4.2414,-4.2429,-4.2444,-4.2455,-4.245,-4.2212,-4.2409,-4.2407,-4.2406,-4.2405,-4.2404,-4.2469,-4.2504,-4.2497,-4.2521,-4.252,-4.2526,-4.2556,-4.2537,-4.2559,-4.2576,-4.2548,-4.2584,-4.2579,-4.2592,-4.2592,-4.2619,-4.2586,-4.2609,-4.2615,-4.2621,-4.2631,-4.245,-4.2622,-4.2621,-4.262,-4.262,-4.2619,0,-4.2654,-4.2645,-4.2668,-4.2677,-4.2697,-4.2651,-4.2655,-4.2674,-4.2706,-4.2705,-4.2723,-4.2755,-4.2778,-4.2757,-4.2776,-4.2802,-4.2782,-4.2809,-4.2807,-4.2806,-4.266,-4.2644,-4.2825,-4.2825,-4.2825,-4.2825,-4.2825,-4.2825,-4.2752,-4.2808,-4.2788,-4.2842,-4.2834,-4.2867,-4.2873,-4.2879,-4.2878,-4.2916,-4.2935,-4.2921,-4.2912,-4.293,-4.2949,-4.2943,-4.2952,-4.2987,-4.2973,-4.2837,-4.2817,-4.2797,-4.2783,-4.2989,-4.2989,-4.3117,-4.3118,-4.3119]},{"header":{"parameterUnit":"m.s-1","parameterCategory":1,"la1":30.2991,"la2":30.254,"lo1":-89.0895,"lo2":-89.0444,"dy":0.0017,"dx":0.0017,"nx":28,"ny":28,"refTime":"2023-11-11T09:00:00:Z","depth":0,"parameterNumber":3,"parameterNumberName":"V-component_of_WINDS"},"data":[0,0,0,0,0,0,0,0,0,0,0,0,0,0,0,0,0,0,0,0,0,0,0,0,0,0,0,0,0,0,0,0,0,0,0,0,0,0,0,0,0,0,0,0,0,0,0,0,0,0,0,0,0,0,0,0,0,0,-5.5362,-5.5363,0,-5.5424,-5.5424,-5.5425,-5.5375,-5.5373,-5.5371,-5.5369,-5.5427,-5.543,-5.5433,0,0,0,0,0,0,0,0,0,0,0,0,0,-5.5196,-5.52,-5.5362,-5.5363,-5.5364,-5.5423,-5.5424,-5.5425,-5.5376,-5.5373,-5.5371,-5.5368,-5.5426,-5.543,-5.5434,0,0,0,0,0,0,0,0,0,0,0,0,0,-5.5264,-5.5201,-5.5362,-5.5346,-5.5346,-5.5423,-5.5424,-5.5425,-5.5376,-5.5373,-5.537,-5.5367,-5.5424,-5.5429,-5.5434,-5.5529,0,0,-5.545,-5.5453,0,0,0,0,0,0,0,0,-5.526,-5.527,-5.5348,-5.5348,-5.5347,-5.5389,-5.5387,-5.546,-5.5377,-5.5364,-5.5369,-5.5365,-5.5416,-5.5422,-5.544,-5.5532,-5.5534,-5.5451,-5.5454,-5.5456,-5.5458,0,0,0,0,0,0,0,-5.5256,-5.5267,-5.5386,-5.5349,-5.5349,-5.5334,-5.5341,-5.54,-5.5407,-5.5365,-5.5362,-5.537,-5.5415,-5.5435,-5.5441,-5.5535,-5.5451,-5.5455,-5.5458,-5.546,-5.5706,-5.5709,0,0,0,0,0,0,-5.5253,-5.5264,-5.5384,-5.5388,-5.5295,-5.534,-5.5347,-5.5378,-5.5406,-5.5408,-5.5373,-5.5368,-5.5428,-5.5435,-5.5443,-5.5555,-5.5456,-5.5461,-5.5464,-5.5702,-5.5706,-5.571,0,0,0,0,0,0,-5.525,-5.5265,-5.5382,-5.5325,-5.5339,-5.5346,-5.5382,-5.5381,-5.5401,-5.5412,-5.5412,-5.5392,-5.5426,-5.5436,-5.5508,-5.5556,-5.5463,-5.5468,-5.5698,-5.5704,-5.5708,-5.5779,0,0,0,0,0,0,-5.5245,-5.5264,-5.5301,-5.5326,-5.5342,-5.5448,-5.5385,-5.5385,-5.5411,-5.5405,-5.543,-5.5431,-5.5424,-5.5501,-5.5513,-5.5561,-5.5472,-5.5694,-5.5701,-5.5707,-5.5773,-5.5786,-5.5798,0,0,0,0,0,-5.524,-5.5318,-5.5303,-5.5318,-5.539,-5.5451,-5.546,-5.5451,-5.5415,-5.5452,-5.5458,-5.5431,-5.5549,-5.5508,-5.5522,-5.5573,-5.5691,-5.5699,-5.5706,-5.5767,-5.5784,-5.5798,0,0,0,0,0,0,-5.5296,-5.5321,-5.5305,-5.5394,-5.5421,-5.5443,-5.5489,-5.5469,-5.5505,-5.5498,-5.5484,-5.549,-5.5566,-5.5576,-5.5531,-5.5665,-5.5614,-5.5624,-5.5655,-5.5671,-5.5683,-5.5679,-5.5476,0,0,0,0,0,-5.532,-5.537,-5.5387,-5.5464,-5.5479,-5.5482,-5.5508,-5.5499,-5.5525,-5.5536,-5.5548,-5.5573,-5.5616,-5.5644,-5.5684,-5.5774,-5.5778,-5.5816,-5.5828,-5.5838,-5.5847,-5.5894,-5.5911,-5.5735,-5.5735,-5.5735,0,0,-5.5368,-5.5387,-5.5419,-5.5476,-5.5496,-5.5546,-5.5491,-5.5547,-5.5583,-5.5544,-5.5613,-5.5623,-5.565,-5.5731,-5.5768,-5.5742,-5.5897,-5.5848,-5.5856,-5.586,-5.5904,-5.5921,-5.5935,-5.574,-5.5739,-5.5738,0,0,-5.548,-5.5501,-5.5567,-5.5588,-5.5619,-5.562,-5.5636,-5.5661,-5.5666,-5.5736,-5.5707,-5.5749,-5.5823,-5.5843,-5.5863,-5.5983,-5.5958,-5.5996,-5.6061,-5.6107,-5.6121,-5.6133,-5.6175,-5.619,-5.6005,-5.6006,-5.6006,0,-5.5535,-5.5612,-5.5603,-5.566,-5.5685,-5.5654,-5.5719,-5.5739,-5.5781,-5.5798,-5.577,-5.5862,-5.5878,-5.5963,-5.5992,-5.601,-5.6025,-5.5993,-5.612,-5.6132,-5.6143,-5.6183,-5.6198,-5.601,-5.6009,-5.6009,-5.6009,0,-5.5677,-5.573,-5.5779,-5.5822,-5.5852,-5.5914,-5.5912,-5.5944,-5.5932,-5.5935,-5.6006,-5.6024,-5.6066,-5.6086,-5.6075,-5.6169,-5.6152,-5.6123,-5.6071,-5.6165,-5.6201,-5.6216,-5.6016,-5.6015,-5.6013,-5.6012,0,0,-5.5827,-5.5865,-5.5883,-5.5901,-5.5933,-5.5973,-5.6031,-5.6075,-5.6101,-5.6131,-5.6178,-5.6242,-5.6214,-5.6237,-5.6227,-5.6267,-5.6359,-5.6232,-5.6232,-5.6254,-5.6463,-5.6485,-5.6503,-5.6343,-5.6346,-5.6349,-5.646,0,-5.594,-5.6045,-5.6038,-5.6136,-5.6183,-5.6154,-5.6204,-5.6228,-5.6233,-5.6273,-5.6277,-5.6322,-5.6282,-5.6296,-5.6335,-5.634,-5.6401,-5.6332,-5.6386,-5.6388,-5.6379,-5.6522,-5.6546,-5.665,-5.6475,-5.6477,-5.6479,0,-5.6087,-5.6123,-5.6226,-5.625,-5.6269,-5.6315,-5.6354,-5.6393,-5.6418,-5.6418,-5.6444,-5.6427,-5.6484,-5.6432,-5.6509,-5.6462,-5.6484,-5.649,-5.6493,-5.6497,-5.6439,-5.6529,-5.6684,-5.6699,-5.6502,-5.65,-5.6498,0,-5.6185,-5.6259,-5.633,-5.6347,-5.6377,-5.6409,-5.6423,-5.6446,-5.6472,-5.6505,-5.6521,-5.656,-5.658,-5.661,-5.6603,-5.6566,-5.6681,-5.6629,-5.6682,-5.6682,-5.6707,-5.6705,-5.6866,-5.6722,-5.6722,-5.6722,-5.6722,0,-5.6311,-5.6375,-5.6374,-5.6418,-5.6487,-5.6478,-5.6546,-5.6556,-5.6576,-5.6619,-5.6596,-5.6636,-5.6625,-5.6665,-5.666,-5.6724,-5.6733,-5.6734,-5.6732,-5.6736,-5.6736,-5.6749,-5.6741,-5.6726,-5.6725,-5.6724,-5.6724,0,-5.6432,-5.6435,-5.651,-5.6532,-5.6539,-5.6589,-5.6607,-5.6647,-5.665,-5.6705,-5.6717,-5.6721,-5.6766,-5.6763,-5.6813,-5.6809,-5.6888,-5.6878,-5.688,-5.6878,-5.693,-5.6925,-5.7105,-5.7127,-5.697,-5.6972,-5.6973,0,-5.6513,-5.6561,-5.6589,-5.6617,-5.6634,-5.6679,-5.6706,-5.6698,-5.6726,-5.6759,-5.6794,-5.6838,-5.6872,-5.6945,-5.6951,-5.6989,-5.6979,-5.7039,-5.6984,-5.6986,-5.6978,-5.6975,-5.6979,-5.705,-5.7051,-5.7053,-5.7054,0,-5.6655,-5.6654,-5.6694,-5.6735,-5.6768,-5.6799,-5.6828,-5.6852,-5.6846,-5.6879,-5.6926,-5.6953,-5.7005,-5.7047,-5.7084,-5.7095,-5.7073,-5.7071,-5.7085,-5.709,-5.7089,-5.7089,-5.6909,-5.7067,-5.7066,-5.7065,-5.7064,-5.7064,-5.6757,-5.6798,-5.6825,-5.687,-5.6891,-5.6918,-5.6957,-5.6965,-5.7004,-5.7047,-5.7039,-5.7092,-5.7114,-5.7161,-5.7176,-5.7215,-5.7193,-5.7214,-5.7219,-5.7224,-5.7229,-5.7083,-5.7222,-5.7221,-5.7221,-5.7221,-5.722,0,-5.6897,-5.6912,-5.6955,-5.6996,-5.7031,-5.701,-5.704,-5.707,-5.7117,-5.7141,-5.7175,-5.7228,-5.7269,-5.7279,-5.7318,-5.7347,-5.7338,-5.7357,-5.7355,-5.7357,-5.7248,-5.7231,-5.7364,-5.7364,-5.7364,-5.7364,-5.7364,-5.7364,-5.6974,-5.7042,-5.7044,-5.7122,-5.7136,-5.7188,-5.7207,-5.7231,-5.725,-5.7311,-5.7346,-5.7352,-5.737,-5.7409,-5.7445,-5.7447,-5.7462,-5.7485,-5.7482,-5.738,-5.7365,-5.7351,-5.7336,-5.7489,-5.7489,-5.7589,-5.759,-5.759]}]]